Погода в Белоносово

Россия / Челябинская область     54°48′42″N   61°26′41″E
темп.,
°C
ветер,
м/с
пор.,
м/с
влажн.,
%
обл.,
%
осадки,
мм/ч
давл.,
гПа
погр.,
м
19 сентября, вс
вс1923:00+2зсз613815 0.0 1011564
02:00+1з5128835 0.0 1011420
05:00+4зсз71165100 0.0 10121301
08:00+3зсз7127698 0.0 10121173
11:00+5сз81157100 0.1 10131523
14:00+6зсз81154100 0.1 10151597
17:00+6зсз81253100 0.1 10171527
20:00+3зсз7146321 0.0 10181161
20 сентября, пн
пн2023:00+4сз81259100 0.0 10191292
02:00+3сз71159100 0.0 10201382
05:00+3сз61059100 0.0 10211347
08:00+3сз6958100 0.0 10221321
11:00+5ссз6754100 0.0 10241334
14:00+7ссз6649100 0.0 10251473
17:00+7ссз5650100 0.0 10261463
20:00+5с3658100 0.0 1027438
21 сентября, вт
вт2123:00+4ссз256291 0.0 1028211
02:00+3ссз356973 0.0 1029134
05:00+1с22845 0.0 103012
08:00+2с12775 0.0 103086
11:00+7ссз22535 0.0 10291005
14:00+10з22429 0.0 10281296
17:00+10зюз334095 0.0 10261377
20:00+6ююз3354100 0.0 102625
22 сентября, ср
ср2223:00+4юз3360100 0.0 102638
02:00+3зюз226630 0.0 102523
05:00+2зсз22714 0.0 102517
08:00+3ссз23695 0.0 102595
11:00+10с33455 0.0 1025752
14:00+12с33340 0.0 10241298
17:00+13с33310 0.0 10241344
20:00+7св345243 0.0 102651
23 сентября, чт
чт2323:00+5всв33655 0.0 102740
02:00+3св33760 0.0 102832
05:00+2св22885 0.0 103019
08:00+4всв23845 0.0 103196
11:00+9всв33515 0.0 10311080
14:00+12всв32425 0.0 10311390
17:00+12в32415 0.0 10311330
20:00+7юв33585 0.0 103234